• In Moldova, Republic
  • List of Countries
  • For 7 days
  • Water Temperature
  • Satellite Maps
  • Weather Map
  • Weather Widgets
  • user-avatar
    Login

    Hourly Weather Nakhchivan

    Today, 28 March, Tuesday

    Time Temperature Precipitation Wind Pressure Humidity
    00:00 +9°C° 0 mm 2 mps 684 mmHg 58%
    01:00 +9°C° 0 mm 2 mps 683 mmHg 60%
    02:00 +8°C° 0 mm 2 mps 683 mmHg 61%
    03:00 +8°C° 0 mm 2 mps 683 mmHg 63%
    04:00 +8°C° 0 mm 2 mps 683 mmHg 64%
    05:00 +7°C° 0 mm 2 mps 683 mmHg 65%
    06:00 +7°C° 0 mm 2 mps 683 mmHg 67%
    07:00 +9°C° 0.1 mm 2 mps 683 mmHg 62%
    08:00 +10°C° 0.1 mm 2 mps 683 mmHg 58%
    09:00 +12°C° 0.1 mm 2 mps 684 mmHg 54%
    10:00 +13°C° 0.1 mm 3 mps 684 mmHg 51%
    11:00 +14°C° 0.1 mm 3 mps 684 mmHg 47%
    12:00 +16°C° 0.1 mm 3 mps 684 mmHg 44%
    13:00 +16°C° 0.5 mm 3 mps 684 mmHg 44%
    14:00 +16°C° 0.5 mm 3 mps 684 mmHg 43%
    15:00 +16°C° 0.5 mm 3 mps 684 mmHg 43%
    16:00 +14°C° 0.3 mm 3 mps 684 mmHg 47%
    17:00 +13°C° 0.3 mm 3 mps 684 mmHg 51%
    18:00 +13°C° 0.3 mm 2 mps 684 mmHg 55%
    19:00 +12°C° 0.1 mm 2 mps 685 mmHg 58%
    20:00 +10°C° 0.1 mm 2 mps 685 mmHg 61%
    21:00 +10°C° 0.1 mm 1 mps 686 mmHg 64%
    22:00 +10°C° 0.1 mm 1 mps 686 mmHg 64%
    23:00 +10°C° 0.1 mm 1 mps 686 mmHg 65%

    Tomorrow, 29 March, Wednesday

    Time Temperature Precipitation Wind Pressure Humidity
    00:00 +9°C° 0.1 mm 1 mps 686 mmHg 65%
    01:00 +9°C° 0.1 mm 1 mps 686 mmHg 66%
    02:00 +9°C° 0.1 mm 1 mps 686 mmHg 66%
    03:00 +8°C° 0.1 mm 1 mps 686 mmHg 67%
    04:00 +8°C° 0 mm 1 mps 686 mmHg 68%
    05:00 +7°C° 0 mm 1 mps 686 mmHg 70%
    06:00 +7°C° 0 mm 1 mps 686 mmHg 71%
    07:00 +8°C° 0 mm 1 mps 686 mmHg 66%
    08:00 +10°C° 0 mm 1 mps 687 mmHg 61%
    09:00 +11°C° 0 mm 1 mps 687 mmHg 55%
    10:00 +12°C° 0 mm 1 mps 687 mmHg 52%
    11:00 +13°C° 0 mm 1 mps 687 mmHg 48%
    12:00 +14°C° 0 mm 2 mps 687 mmHg 45%
    13:00 +15°C° 0 mm 2 mps 687 mmHg 43%
    14:00 +15°C° 0 mm 2 mps 687 mmHg 40%
    15:00 +16°C° 0 mm 2 mps 687 mmHg 38%
    16:00 +15°C° 0 mm 2 mps 687 mmHg 41%
    17:00 +14°C° 0 mm 2 mps 687 mmHg 43%
    18:00 +13°C° 0 mm 2 mps 687 mmHg 46%
    19:00 +12°C° 0 mm 2 mps 688 mmHg 49%
    20:00 +11°C° 0 mm 1 mps 688 mmHg 51%
    21:00 +10°C° 0 mm 1 mps 689 mmHg 54%
    22:00 +10°C° 0 mm 1 mps 689 mmHg 54%
    23:00 +9°C° 0 mm 1 mps 689 mmHg 55%

    Day after tomorrow, 30 March, Thursday

    Time Temperature Precipitation Wind Pressure Humidity
    00:00 +9°C° 0 mm 1 mps 689 mmHg 56%
    01:00 +8°C° 0 mm 1 mps 689 mmHg 56%
    02:00 +8°C° 0 mm 1 mps 689 mmHg 57%
    03:00 +7°C° 0 mm 1 mps 689 mmHg 57%
    04:00 +7°C° 0 mm 1 mps 689 mmHg 58%
    05:00 +7°C° 0 mm 1 mps 689 mmHg 58%
    06:00 +5°C° 0 mm 0 mps 689 mmHg 58%
    07:00 +7°C° 0 mm 0 mps 689 mmHg 52%
    08:00 +9°C° 0 mm 0 mps 690 mmHg 46%
    09:00 +12°C° 0 mm 0 mps 690 mmHg 40%
    10:00 +14°C° 0 mm 1 mps 690 mmHg 38%
    11:00 +15°C° 0 mm 1 mps 689 mmHg 36%
    12:00 +16°C° 0 mm 1 mps 689 mmHg 34%
    13:00 +18°C° 0 mm 1 mps 689 mmHg 33%
    14:00 +18°C° 0 mm 1 mps 688 mmHg 32%
    15:00 +19°C° 0 mm 1 mps 688 mmHg 31%
    16:00 +18°C° 0 mm 1 mps 688 mmHg 33%
    17:00 +16°C° 0 mm 1 mps 688 mmHg 35%
    18:00 +15°C° 0 mm 1 mps 687 mmHg 38%
    19:00 +14°C° 0 mm 1 mps 688 mmHg 39%
    20:00 +13°C° 0 mm 2 mps 688 mmHg 40%
    21:00 +12°C° 0 mm 2 mps 688 mmHg 42%
    22:00 +10°C° 0 mm 2 mps 688 mmHg 43%
    23:00 +10°C° 0 mm 2 mps 688 mmHg 44%

    31 March, Friday

    Time Temperature Precipitation Wind Pressure Humidity
    00:00 +9°C° 0 mm 2 mps 688 mmHg 46%
    01:00 +9°C° 0 mm 2 mps 687 mmHg 47%
    02:00 +8°C° 0 mm 2 mps 687 mmHg 49%
    03:00 +9°C° 0 mm 1 mps 687 mmHg 50%
    04:00 +8°C° 0 mm 1 mps 687 mmHg 51%
    05:00 +8°C° 0 mm 1 mps 687 mmHg 52%
    06:00 +8°C° 0 mm 1 mps 687 mmHg 53%
    07:00 +9°C° 0 mm 1 mps 687 mmHg 48%
    08:00 +11°C° 0 mm 1 mps 687 mmHg 42%
    09:00 +13°C° 0 mm 1 mps 687 mmHg 37%
    10:00 +14°C° 0 mm 1 mps 687 mmHg 36%
    11:00 +15°C° 0 mm 1 mps 687 mmHg 35%
    12:00 +18°C° 0 mm 1 mps 687 mmHg 34%
    13:00 +18°C° 0 mm 1 mps 687 mmHg 34%
    14:00 +19°C° 0 mm 1 mps 686 mmHg 33%
    15:00 +19°C° 0 mm 1 mps 686 mmHg 33%
    16:00 +17°C° 0 mm 2 mps 686 mmHg 36%
    17:00 +16°C° 0 mm 2 mps 686 mmHg 38%
    18:00 +16°C° 0 mm 2 mps 686 mmHg 41%
    19:00 +15°C° 0.1 mm 2 mps 686 mmHg 46%
    20:00 +14°C° 0.1 mm 2 mps 687 mmHg 50%
    21:00 +13°C° 0.1 mm 2 mps 687 mmHg 54%
    22:00 +13°C° 0.3 mm 2 mps 687 mmHg 57%
    23:00 +12°C° 0.3 mm 1 mps 687 mmHg 61%

    1 April, Saturday

    Time Temperature Precipitation Wind Pressure Humidity
    00:00 +12°C° 0.3 mm 1 mps 686 mmHg 64%
    01:00 +11°C° 0.1 mm 1 mps 686 mmHg 67%
    02:00 +11°C° 0.1 mm 1 mps 686 mmHg 69%
    03:00 +10°C° 0.1 mm 1 mps 686 mmHg 71%
    04:00 +10°C° 0.2 mm 1 mps 686 mmHg 72%
    05:00 +10°C° 0.2 mm 1 mps 686 mmHg 74%
    06:00 +10°C° 0.2 mm 1 mps 686 mmHg 75%
    07:00 +10°C° 0.8 mm 1 mps 686 mmHg 74%
    08:00 +10°C° 0.8 mm 1 mps 686 mmHg 74%
    09:00 +11°C° 0.8 mm 1 mps 686 mmHg 74%
    10:00 +11°C° 0.6 mm 1 mps 686 mmHg 73%
    11:00 +12°C° 0.6 mm 1 mps 685 mmHg 72%
    12:00 +12°C° 0.6 mm 1 mps 685 mmHg 70%
    13:00 +13°C° 0.2 mm 1 mps 685 mmHg 68%
    14:00 +14°C° 0.2 mm 1 mps 685 mmHg 66%
    15:00 +14°C° 0.2 mm 1 mps 684 mmHg 64%
    16:00 +14°C° 0.1 mm 1 mps 685 mmHg 66%
    17:00 +13°C° 0.1 mm 1 mps 685 mmHg 69%
    18:00 +13°C° 0.1 mm 1 mps 685 mmHg 71%
    19:00 +12°C° 0.1 mm 1 mps 685 mmHg 73%
    20:00 +12°C° 0.1 mm 1 mps 685 mmHg 76%
    21:00 +11°C° 0.1 mm 1 mps 685 mmHg 78%
    22:00 +11°C° 0.8 mm 1 mps 685 mmHg 79%
    23:00 +10°C° 0.8 mm 1 mps 685 mmHg 81%

    2 April, Sunday

    Time Temperature Precipitation Wind Pressure Humidity
    00:00 +10°C° 0.8 mm 1 mps 684 mmHg 82%
    01:00 +9°C° 1.1 mm 1 mps 684 mmHg 83%
    02:00 +8°C° 1.1 mm 2 mps 684 mmHg 84%
    03:00 +8°C° 1.1 mm 2 mps 684 mmHg 84%
    04:00 +8°C° 0.4 mm 2 mps 684 mmHg 84%
    05:00 +7°C° 0.4 mm 2 mps 684 mmHg 84%
    06:00 +7°C° 0.4 mm 2 mps 684 mmHg 84%
    07:00 +8°C° 0.5 mm 2 mps 685 mmHg 80%
    08:00 +8°C° 0.5 mm 2 mps 685 mmHg 77%
    09:00 +9°C° 0.5 mm 2 mps 686 mmHg 73%
    10:00 +9°C° 0.6 mm 2 mps 686 mmHg 71%
    11:00 +9°C° 0.6 mm 2 mps 687 mmHg 69%
    12:00 +9°C° 0.6 mm 2 mps 687 mmHg 67%
    13:00 +9°C° 0.4 mm 2 mps 687 mmHg 65%
    14:00 +9°C° 0.4 mm 3 mps 688 mmHg 63%
    15:00 +9°C° 0.4 mm 3 mps 688 mmHg 61%
    16:00 +9°C° 0.2 mm 2 mps 688 mmHg 62%
    17:00 +8°C° 0.2 mm 2 mps 689 mmHg 63%
    18:00 +8°C° 0.2 mm 2 mps 689 mmHg 63%
    19:00 +7°C° 0 mm 2 mps 690 mmHg 66%
    20:00 +6°C° 0 mm 2 mps 691 mmHg 68%
    21:00 +7°C° 0 mm 1 mps 691 mmHg 70%
    22:00 +6°C° 0 mm 1 mps 691 mmHg 71%
    23:00 +6°C° 0 mm 1 mps 691 mmHg 71%
    Show more